Time,TemperatureF,DewpointF,PressureIn,WindDirection,WindDirectionDegrees,WindSpeedMPH,WindSpeedGustMPH,Humidity,HourlyPrecipIn,Conditions,Clouds,dailyrainin,SoftwareType,DateUTC
2013-09-07 00:00:00,52.2,46.2,30.07,NNE,13,0.0,0.0,80,0.00,,,0.00,Wunderground v.1.15,2013-09-07 04:00:00,
2013-09-07 00:05:00,52.2,45.9,30.07,NNE,14,0.0,0.0,79,0.00,,,0.00,Wunderground v.1.15,2013-09-07 04:05:00,
2013-09-07 00:10:00,52.3,46.0,30.07,NNE,14,0.0,0.0,79,0.00,,,0.00,Wunderground v.1.15,2013-09-07 04:10:00,
2013-09-07 00:15:00,52.3,46.0,30.07,NNE,14,0.0,0.0,79,0.00,,,0.00,Wunderground v.1.15,2013-09-07 04:15:00,
2013-09-07 00:20:00,52.2,45.9,30.06,NNE,14,0.0,0.0,79,0.00,,,0.00,Wunderground v.1.15,2013-09-07 04:20:00,
2013-09-07 00:25:00,52.0,45.7,30.06,NNE,14,0.0,0.0,79,0.00,,,0.00,Wunderground v.1.15,2013-09-07 04:25:00,
2013-09-07 00:29:00,51.9,45.9,30.06,NNE,14,0.0,0.0,80,0.00,,,0.00,Wunderground v.1.15,2013-09-07 04:29:00,
2013-09-07 00:35:00,51.9,45.9,30.06,NNE,14,0.0,0.0,80,0.00,,,0.00,Wunderground v.1.15,2013-09-07 04:35:00,
2013-09-07 00:40:00,51.6,46.0,30.06,NNE,14,0.0,0.0,81,0.00,,,0.00,Wunderground v.1.15,2013-09-07 04:40:00,
2013-09-07 00:50:00,51.3,45.7,30.06,NNE,14,0.0,0.0,81,0.00,,,0.00,Wunderground v.1.15,2013-09-07 04:50:00,
2013-09-07 00:55:00,51.1,45.8,30.06,NNE,14,0.0,0.0,82,0.00,,,0.00,Wunderground v.1.15,2013-09-07 04:55:00,
2013-09-07 01:00:00,51.0,46.0,30.06,NNE,14,0.0,0.0,83,0.00,,,0.00,Wunderground v.1.15,2013-09-07 05:00:00,
2013-09-07 01:05:00,51.0,46.0,30.06,NNE,14,0.0,0.0,83,0.00,,,0.00,Wunderground v.1.15,2013-09-07 05:05:00,
2013-09-07 01:10:00,50.8,46.1,30.06,NNE,14,0.0,0.0,84,0.00,,,0.00,Wunderground v.1.15,2013-09-07 05:10:00,
2013-09-07 01:15:00,50.8,46.1,30.06,NNE,14,0.0,0.0,84,0.00,,,0.00,Wunderground v.1.15,2013-09-07 05:15:00,
2013-09-07 01:25:00,50.8,46.1,30.06,NNE,14,0.0,0.0,84,0.00,,,0.00,Wunderground v.1.15,2013-09-07 05:25:00,
2013-09-07 01:30:00,50.8,45.8,30.06,NNE,13,0.0,0.0,83,0.00,,,0.00,Wunderground v.1.15,2013-09-07 05:30:00,
2013-09-07 01:40:00,51.4,46.1,30.06,NNE,14,0.0,0.0,82,0.00,,,0.00,Wunderground v.1.15,2013-09-07 05:40:00,
2013-09-07 01:45:00,51.4,46.1,30.06,NNE,13,0.0,0.0,82,0.00,,,0.00,Wunderground v.1.15,2013-09-07 05:45:00,
2013-09-07 01:50:00,51.4,46.1,30.06,NNE,13,0.0,0.0,82,0.00,,,0.00,Wunderground v.1.15,2013-09-07 05:50:00,
2013-09-07 02:00:00,51.4,46.1,30.06,NNE,13,0.0,0.0,82,0.00,,,0.00,Wunderground v.1.15,2013-09-07 06:00:00,
2013-09-07 02:05:00,51.3,46.3,30.05,NNE,14,0.0,0.0,83,0.00,,,0.00,Wunderground v.1.15,2013-09-07 06:05:00,
2013-09-07 02:10:00,51.0,46.3,30.05,NNE,13,0.0,0.0,84,0.00,,,0.00,Wunderground v.1.15,2013-09-07 06:10:00,
2013-09-07 02:15:00,50.8,46.1,30.05,NE,41,0.0,0.0,84,0.00,,,0.00,Wunderground v.1.15,2013-09-07 06:15:00,
2013-09-07 02:20:00,50.8,45.8,30.05,SSE,156,0.0,0.0,83,0.00,,,0.00,Wunderground v.1.15,2013-09-07 06:20:00,
2013-09-07 02:30:00,51.4,45.8,30.05,SSW,213,0.0,0.0,81,0.00,,,0.00,Wunderground v.1.15,2013-09-07 06:30:00,
2013-09-07 02:35:00,51.6,45.6,30.05,SSW,213,0.0,0.0,80,0.00,,,0.00,Wunderground v.1.15,2013-09-07 06:35:00,
2013-09-07 02:40:00,51.7,45.4,30.05,SSW,213,0.0,0.0,79,0.00,,,0.00,Wunderground v.1.15,2013-09-07 06:40:00,
2013-09-07 02:49:00,51.6,45.6,30.05,SSW,213,0.0,0.0,80,0.00,,,0.00,Wunderground v.1.15,2013-09-07 06:49:00,
2013-09-07 02:54:00,51.3,45.3,30.05,SSW,209,0.0,0.0,80,0.00,,,0.00,Wunderground v.1.15,2013-09-07 06:54:00,
2013-09-07 03:00:00,51.1,45.5,30.05,SSW,209,0.0,0.0,81,0.00,,,0.00,Wunderground v.1.15,2013-09-07 07:00:00,
2013-09-07 03:05:00,51.1,45.5,30.05,SSW,209,0.0,0.0,81,0.00,,,0.00,Wunderground v.1.15,2013-09-07 07:05:00,
2013-09-07 03:15:00,51.0,45.4,30.05,SSW,209,0.0,0.0,81,0.00,,,0.00,Wunderground v.1.15,2013-09-07 07:15:00,
2013-09-07 03:20:00,50.8,45.2,30.05,SSW,209,0.0,0.0,81,0.00,,,0.00,Wunderground v.1.15,2013-09-07 07:20:00,
2013-09-07 03:30:00,50.7,45.4,30.05,SSW,209,0.0,0.0,82,0.00,,,0.00,Wunderground v.1.15,2013-09-07 07:30:00,
2013-09-07 03:35:00,50.5,45.5,30.05,SSW,209,0.0,0.0,83,0.00,,,0.00,Wunderground v.1.15,2013-09-07 07:35:00,
2013-09-07 03:40:00,50.5,45.5,30.05,SSW,201,0.0,0.0,83,0.00,,,0.00,Wunderground v.1.15,2013-09-07 07:40:00,
2013-09-07 03:45:00,50.5,45.5,30.05,SSW,201,0.0,0.0,83,0.00,,,0.00,Wunderground v.1.15,2013-09-07 07:45:00,
2013-09-07 03:50:00,50.5,45.5,30.04,SSW,201,0.0,0.0,83,0.00,,,0.00,Wunderground v.1.15,2013-09-07 07:50:00,
2013-09-07 03:55:00,50.5,45.2,30.04,SSW,201,0.0,0.0,82,0.00,,,0.00,Wunderground v.1.15,2013-09-07 07:55:00,
2013-09-07 04:04:00,50.5,45.2,30.04,SSW,201,0.0,0.0,82,0.00,,,0.00,Wunderground v.1.15,2013-09-07 08:04:00,
2013-09-07 04:09:00,50.5,45.2,30.04,SSW,201,0.0,0.0,82,0.00,,,0.00,Wunderground v.1.15,2013-09-07 08:09:00,
2013-09-07 04:14:00,50.4,45.1,30.04,SSW,201,0.0,0.0,82,0.00,,,0.00,Wunderground v.1.15,2013-09-07 08:14:00,
2013-09-07 04:19:00,50.4,45.1,30.04,SSW,201,0.0,0.0,82,0.00,,,0.00,Wunderground v.1.15,2013-09-07 08:19:00,
2013-09-07 04:24:00,50.5,45.2,30.04,SSW,201,0.0,0.0,82,0.00,,,0.00,Wunderground v.1.15,2013-09-07 08:24:00,
2013-09-07 04:30:00,50.5,45.2,30.04,SSW,201,0.0,0.0,82,0.00,,,0.00,Wunderground v.1.15,2013-09-07 08:30:00,
2013-09-07 04:35:00,50.5,45.2,30.04,SSW,201,0.0,0.0,82,0.00,,,0.00,Wunderground v.1.15,2013-09-07 08:35:00,
2013-09-07 04:40:00,50.5,45.2,30.04,SSW,201,0.0,0.0,82,0.00,,,0.00,Wunderground v.1.15,2013-09-07 08:40:00,
2013-09-07 04:50:00,50.8,45.2,30.04,SSW,201,0.0,0.0,81,0.00,,,0.00,Wunderground v.1.15,2013-09-07 08:50:00,
2013-09-07 04:55:00,51.0,45.4,30.04,SSW,201,0.0,0.0,81,0.00,,,0.00,Wunderground v.1.15,2013-09-07 08:55:00,
2013-09-07 05:05:00,50.7,45.1,30.04,SSW,201,0.0,0.0,81,0.00,,,0.00,Wunderground v.1.15,2013-09-07 09:05:00,
2013-09-07 05:10:00,50.5,45.2,30.04,SSW,201,0.0,0.0,82,0.00,,,0.00,Wunderground v.1.15,2013-09-07 09:10:00,
2013-09-07 05:15:00,50.4,45.4,30.04,SSW,201,0.0,0.0,83,0.00,,,0.00,Wunderground v.1.15,2013-09-07 09:15:00,
2013-09-07 05:20:00,50.1,45.5,30.04,SSW,201,0.0,0.0,84,0.00,,,0.00,Wunderground v.1.15,2013-09-07 09:20:00,
2013-09-07 05:25:00,49.8,45.5,30.04,SSW,201,0.0,0.0,85,0.00,,,0.00,Wunderground v.1.15,2013-09-07 09:25:00,
2013-09-07 05:34:00,49.5,45.5,30.04,SSW,201,0.0,0.0,86,0.00,,,0.00,Wunderground v.1.15,2013-09-07 09:34:00,
2013-09-07 05:39:00,49.5,45.8,30.04,SSW,201,0.0,0.0,87,0.00,,,0.00,Wunderground v.1.15,2013-09-07 09:39:00,
2013-09-07 05:44:00,49.5,45.8,30.04,SSW,201,0.0,0.0,87,0.00,,,0.00,Wunderground v.1.15,2013-09-07 09:44:00,
2013-09-07 05:49:00,49.5,45.8,30.04,SSW,201,0.0,0.0,87,0.00,,,0.00,Wunderground v.1.15,2013-09-07 09:49:00,
2013-09-07 05:54:00,49.5,45.5,30.04,SSW,201,0.0,0.0,86,0.00,,,0.00,Wunderground v.1.15,2013-09-07 09:54:00,
2013-09-07 06:00:00,49.6,45.3,30.04,SSW,201,0.0,0.0,85,0.00,,,0.00,Wunderground v.1.15,2013-09-07 10:00:00,
2013-09-07 06:05:00,50.2,45.2,30.02,SSW,201,0.0,0.0,83,0.00,,,0.00,Wunderground v.1.15,2013-09-07 10:05:00,
2013-09-07 06:10:00,50.7,45.1,30.02,SSW,201,0.0,0.0,81,0.00,,,0.00,Wunderground v.1.15,2013-09-07 10:10:00,
2013-09-07 06:15:00,50.8,45.2,30.02,SSW,201,0.0,0.0,81,0.00,,,0.00,Wunderground v.1.15,2013-09-07 10:15:00,
2013-09-07 06:20:00,50.7,45.1,30.02,SSW,201,0.0,0.0,81,0.00,,,0.00,Wunderground v.1.15,2013-09-07 10:20:00,
2013-09-07 06:29:00,50.4,44.8,30.02,SSW,201,0.0,0.0,81,0.00,,,0.00,Wunderground v.1.15,2013-09-07 10:29:00,
2013-09-07 06:35:00,50.2,44.9,30.02,SSW,201,0.0,0.0,82,0.00,,,0.00,Wunderground v.1.15,2013-09-07 10:35:00,
2013-09-07 06:40:00,50.2,45.2,30.02,SSW,201,0.0,0.0,83,0.00,,,0.00,Wunderground v.1.15,2013-09-07 10:40:00,
2013-09-07 06:50:00,50.2,45.2,30.03,SSW,201,0.0,0.0,83,0.00,,,0.00,Wunderground v.1.15,2013-09-07 10:50:00,
2013-09-07 06:55:00,50.2,45.2,30.03,SSW,201,0.0,0.0,83,0.00,,,0.00,Wunderground v.1.15,2013-09-07 10:55:00,
2013-09-07 07:05:00,50.5,45.8,30.03,SSW,200,0.0,0.0,84,0.00,,,0.00,Wunderground v.1.15,2013-09-07 11:05:00,
2013-09-07 07:10:00,50.5,45.8,30.03,SSW,200,0.0,0.0,84,0.00,,,0.00,Wunderground v.1.15,2013-09-07 11:10:00,
2013-09-07 07:15:00,50.7,46.0,30.03,SSW,200,0.0,0.0,84,0.00,,,0.00,Wunderground v.1.15,2013-09-07 11:15:00,
2013-09-07 07:25:00,51.4,46.1,30.03,SSW,200,0.0,0.0,82,0.00,,,0.00,Wunderground v.1.15,2013-09-07 11:25:00,
2013-09-07 07:30:00,52.2,45.9,30.03,SSW,200,0.0,0.0,79,0.00,,,0.00,Wunderground v.1.15,2013-09-07 11:30:00,
2013-09-07 07:39:00,53.1,45.7,30.04,SSW,200,0.0,0.0,76,0.00,,,0.00,Wunderground v.1.15,2013-09-07 11:39:00,
2013-09-07 07:44:00,53.6,45.9,30.04,SSW,200,0.0,0.0,75,0.00,,,0.00,Wunderground v.1.15,2013-09-07 11:44:00,
2013-09-07 07:50:00,54.2,46.1,30.03,SSW,200,0.0,0.0,74,0.00,,,0.00,Wunderground v.1.15,2013-09-07 11:50:00,
2013-09-07 07:55:00,54.5,46.4,30.03,SSW,200,0.0,0.0,74,0.00,,,0.00,Wunderground v.1.15,2013-09-07 11:55:00,
2013-09-07 08:05:00,56.0,46.4,30.03,South,186,0.0,0.0,70,0.00,,,0.00,Wunderground v.1.15,2013-09-07 12:05:00,
2013-09-07 08:15:00,57.5,46.2,30.03,South,184,0.0,0.0,66,0.00,,,0.00,Wunderground v.1.15,2013-09-07 12:15:00,
2013-09-07 08:20:00,58.1,47.2,30.02,South,184,0.0,0.0,67,0.00,,,0.00,Wunderground v.1.15,2013-09-07 12:20:00,
2013-09-07 08:25:00,58.7,47.4,30.02,South,184,0.0,0.0,66,0.00,,,0.00,Wunderground v.1.15,2013-09-07 12:25:00,
2013-09-07 08:30:00,59.3,47.1,30.02,South,184,0.0,0.0,64,0.00,,,0.00,Wunderground v.1.15,2013-09-07 12:30:00,
2013-09-07 08:35:00,59.9,46.8,30.02,SE,132,0.0,1.0,62,0.00,,,0.00,Wunderground v.1.15,2013-09-07 12:35:00,
2013-09-07 08:40:00,60.1,46.6,30.02,South,175,0.0,0.0,61,0.00,,,0.00,Wunderground v.1.15,2013-09-07 12:40:00,
2013-09-07 08:45:00,60.7,48.0,30.02,South,175,0.0,0.0,63,0.00,,,0.00,Wunderground v.1.15,2013-09-07 12:45:00,
2013-09-07 08:50:00,61.5,47.9,30.01,South,175,0.0,0.0,61,0.00,,,0.00,Wunderground v.1.15,2013-09-07 12:50:00,
2013-09-07 08:55:00,62.0,48.0,30.01,South,175,0.0,0.0,60,0.00,,,0.00,Wunderground v.1.15,2013-09-07 12:55:00,
2013-09-07 09:05:00,63.4,48.4,30.01,South,175,0.0,0.0,58,0.00,,,0.00,Wunderground v.1.15,2013-09-07 13:05:00,
2013-09-07 09:10:00,63.9,47.9,30.01,South,175,0.0,0.0,56,0.00,,,0.00,Wunderground v.1.15,2013-09-07 13:10:00,
2013-09-07 09:15:00,64.5,48.9,30.01,South,175,0.0,0.0,57,0.00,,,0.00,Wunderground v.1.15,2013-09-07 13:15:00,
2013-09-07 09:20:00,65.6,48.0,30.01,South,175,0.0,0.0,53,0.00,,,0.00,Wunderground v.1.15,2013-09-07 13:20:00,
2013-09-07 09:30:00,67.1,48.9,30.01,South,175,0.0,0.0,52,0.00,,,0.00,Wunderground v.1.15,2013-09-07 13:30:00,
2013-09-07 09:35:00,67.6,49.9,30.01,South,175,0.0,0.0,53,0.00,,,0.00,Wunderground v.1.15,2013-09-07 13:35:00,
2013-09-07 09:44:00,67.1,49.4,30.01,South,175,0.0,0.0,53,0.00,,,0.00,Wunderground v.1.15,2013-09-07 13:44:00,
2013-09-07 09:49:00,67.3,48.5,30.01,South,175,0.0,0.0,51,0.00,,,0.00,Wunderground v.1.15,2013-09-07 13:49:00,
2013-09-07 09:54:00,67.6,48.8,30.01,South,175,0.0,0.0,51,0.00,,,0.00,Wunderground v.1.15,2013-09-07 13:54:00,
2013-09-07 09:59:00,68.1,48.8,30.01,South,175,0.0,0.0,50,0.00,,,0.00,Wunderground v.1.15,2013-09-07 13:59:00,
2013-09-07 10:05:00,68.3,48.9,30.01,SSW,195,0.0,0.0,50,0.00,,,0.00,Wunderground v.1.15,2013-09-07 14:05:00,
2013-09-07 10:10:00,68.6,49.7,30.01,SSW,195,0.0,0.0,51,0.00,,,0.00,Wunderground v.1.15,2013-09-07 14:10:00,
2013-09-07 10:15:00,69.1,48.6,30.01,South,178,0.0,0.0,48,0.00,,,0.00,Wunderground v.1.15,2013-09-07 14:15:00,
2013-09-07 10:20:00,68.9,48.9,30.01,WSW,250,0.0,0.0,49,0.00,,,0.00,Wunderground v.1.15,2013-09-07 14:20:00,
2013-09-07 10:30:00,69.4,49.4,30.01,South,190,0.0,0.0,49,0.00,,,0.00,Wunderground v.1.15,2013-09-07 14:30:00,
2013-09-07 10:40:00,70.9,50.8,30.01,South,190,0.0,0.0,49,0.00,,,0.00,Wunderground v.1.15,2013-09-07 14:40:00,
2013-09-07 10:45:00,70.9,49.7,30.01,South,190,0.0,0.0,47,0.00,,,0.00,Wunderground v.1.15,2013-09-07 14:45:00,
2013-09-07 10:49:00,70.8,50.7,30.01,SSW,194,0.0,0.0,49,0.00,,,0.00,Wunderground v.1.15,2013-09-07 14:49:00,
2013-09-07 10:55:00,71.3,50.6,30.01,SSW,204,0.0,0.0,48,0.00,,,0.00,Wunderground v.1.15,2013-09-07 14:55:00,
2013-09-07 11:05:00,72.5,51.1,30.00,SSW,204,0.0,0.0,47,0.00,,,0.00,Wunderground v.1.15,2013-09-07 15:05:00,
2013-09-07 11:10:00,72.5,51.1,30.00,WSW,254,0.0,0.0,47,0.00,,,0.00,Wunderground v.1.15,2013-09-07 15:10:00,
2013-09-07 11:15:00,73.0,51.0,30.00,WSW,254,0.0,0.0,46,0.00,,,0.00,Wunderground v.1.15,2013-09-07 15:15:00,
2013-09-07 11:24:00,72.3,48.5,29.99,SSE,165,1.0,1.0,43,0.00,,,0.00,Wunderground v.1.15,2013-09-07 15:24:00,
2013-09-07 11:29:00,72.7,48.3,29.99,West,263,1.0,1.0,42,0.00,,,0.00,Wunderground v.1.15,2013-09-07 15:29:00,
2013-09-07 11:34:00,73.0,51.0,29.99,SW,225,0.0,1.0,46,0.00,,,0.00,Wunderground v.1.15,2013-09-07 15:34:00,
2013-09-07 11:39:00,73.5,49.0,29.99,South,176,0.0,0.0,42,0.00,,,0.00,Wunderground v.1.15,2013-09-07 15:39:00,
2013-09-07 11:44:00,73.5,47.7,29.99,SSE,166,1.0,1.0,40,0.00,,,0.00,Wunderground v.1.15,2013-09-07 15:44:00,
2013-09-07 11:49:00,73.9,48.1,29.98,NNE,24,1.0,1.0,40,0.00,,,0.00,Wunderground v.1.15,2013-09-07 15:49:00,
2013-09-07 11:54:00,74.6,48.0,29.98,WNW,294,0.0,1.0,39,0.00,,,0.00,Wunderground v.1.15,2013-09-07 15:54:00,
2013-09-07 11:59:00,74.9,50.3,29.98,NW,319,0.0,1.0,42,0.00,,,0.00,Wunderground v.1.15,2013-09-07 15:59:00,
2013-09-07 12:05:00,74.7,46.7,29.97,SSW,194,0.0,1.0,37,0.00,,,0.00,Wunderground v.1.15,2013-09-07 16:05:00,
2013-09-07 12:10:00,74.4,48.5,29.97,South,173,1.0,1.0,40,0.00,,,0.00,Wunderground v.1.15,2013-09-07 16:10:00,
2013-09-07 12:20:00,74.0,47.5,29.96,South,180,1.0,1.0,39,0.00,,,0.00,Wunderground v.1.15,2013-09-07 16:20:00,
2013-09-07 12:30:00,74.4,49.2,29.96,SSE,167,1.0,1.0,41,0.00,,,0.00,Wunderground v.1.15,2013-09-07 16:30:00,
2013-09-07 12:35:00,74.7,48.1,29.96,South,175,1.0,1.0,39,0.00,,,0.00,Wunderground v.1.15,2013-09-07 16:35:00,
2013-09-07 12:40:00,75.6,46.8,29.96,NNE,24,0.0,2.0,36,0.00,,,0.00,Wunderground v.1.15,2013-09-07 16:40:00,
2013-09-07 12:45:00,76.8,45.5,29.96,WSW,258,0.0,2.0,33,0.00,,,0.00,Wunderground v.1.15,2013-09-07 16:45:00,
2013-09-07 12:50:00,76.5,46.8,29.95,SSE,160,1.0,1.0,35,0.00,,,0.00,Wunderground v.1.15,2013-09-07 16:50:00,
2013-09-07 12:55:00,75.8,46.9,29.95,SSE,166,1.0,1.0,36,0.00,,,0.00,Wunderground v.1.15,2013-09-07 16:55:00,
2013-09-07 13:00:00,76.7,49.2,29.95,WSW,250,0.0,0.0,38,0.00,,,0.00,Wunderground v.1.15,2013-09-07 17:00:00,
2013-09-07 13:10:00,78.1,46.6,29.95,South,183,0.0,0.0,33,0.00,,,0.00,Wunderground v.1.15,2013-09-07 17:10:00,
2013-09-07 13:15:00,78.1,46.6,29.95,SW,215,0.0,0.0,33,0.00,,,0.00,Wunderground v.1.15,2013-09-07 17:15:00,
2013-09-07 13:20:00,77.7,48.6,29.94,West,267,1.0,1.0,36,0.00,,,0.00,Wunderground v.1.15,2013-09-07 17:20:00,
2013-09-07 13:24:00,77.6,47.0,29.94,North,11,1.0,3.0,34,0.00,,,0.00,Wunderground v.1.15,2013-09-07 17:24:00,
2013-09-07 13:30:00,77.6,48.5,29.94,South,171,1.0,1.0,36,0.00,,,0.00,Wunderground v.1.15,2013-09-07 17:30:00,
2013-09-07 13:35:00,77.7,48.6,29.94,North,10,0.0,2.0,36,0.00,,,0.00,Wunderground v.1.15,2013-09-07 17:35:00,
2013-09-07 13:40:00,78.1,49.0,29.94,SW,236,0.0,1.0,36,0.00,,,0.00,Wunderground v.1.15,2013-09-07 17:40:00,
2013-09-07 13:45:00,78.1,48.2,29.94,West,277,0.0,1.0,35,0.00,,,0.00,Wunderground v.1.15,2013-09-07 17:45:00,
2013-09-07 13:50:00,77.2,46.7,29.93,SSE,159,0.0,0.0,34,0.00,,,0.00,Wunderground v.1.15,2013-09-07 17:50:00,
2013-09-07 14:00:00,77.7,47.9,29.93,WNW,285,0.0,1.0,35,0.00,,,0.00,Wunderground v.1.15,2013-09-07 18:00:00,
2013-09-07 14:10:00,77.9,47.3,29.92,NW,306,0.0,0.0,34,0.00,,,0.00,Wunderground v.1.15,2013-09-07 18:10:00,
2013-09-07 14:20:00,77.6,50.0,29.91,South,175,0.0,0.0,38,0.00,,,0.00,Wunderground v.1.15,2013-09-07 18:20:00,
2013-09-07 14:25:00,77.9,48.8,29.91,West,278,0.0,0.0,36,0.00,,,0.00,Wunderground v.1.15,2013-09-07 18:25:00,
2013-09-07 14:30:00,77.9,48.0,29.91,SW,232,0.0,0.0,35,0.00,,,0.00,Wunderground v.1.15,2013-09-07 18:30:00,
2013-09-07 14:40:00,78.1,51.1,29.91,NNE,14,0.0,3.0,39,0.00,,,0.00,Wunderground v.1.15,2013-09-07 18:40:00,
2013-09-07 14:45:00,78.1,49.0,29.91,SSE,165,0.0,3.0,36,0.00,,,0.00,Wunderground v.1.15,2013-09-07 18:45:00,
2013-09-07 14:55:00,78.5,50.1,29.90,SSW,202,0.0,0.0,37,0.00,,,0.00,Wunderground v.1.15,2013-09-07 18:55:00,
2013-09-07 15:00:00,78.6,49.4,29.90,SW,215,0.0,0.0,36,0.00,,,0.00,Wunderground v.1.15,2013-09-07 19:00:00,
2013-09-07 15:05:00,78.6,50.1,29.90,North,5,0.0,1.0,37,0.00,,,0.00,Wunderground v.1.15,2013-09-07 19:05:00,
2013-09-07 15:14:00,77.9,48.8,29.90,South,180,0.0,0.0,36,0.00,,,0.00,Wunderground v.1.15,2013-09-07 19:14:00,
2013-09-07 15:19:00,77.6,50.0,29.89,SSW,196,0.0,0.0,38,0.00,,,0.00,Wunderground v.1.15,2013-09-07 19:19:00,
2013-09-07 15:24:00,77.7,50.1,29.89,SSW,202,0.0,0.0,38,0.00,,,0.00,Wunderground v.1.15,2013-09-07 19:24:00,
2013-09-07 15:29:00,78.3,49.9,29.89,SW,221,0.0,0.0,37,0.00,,,0.00,Wunderground v.1.15,2013-09-07 19:29:00,
2013-09-07 15:35:00,78.1,49.0,29.89,South,181,0.0,2.0,36,0.00,,,0.00,Wunderground v.1.15,2013-09-07 19:35:00,
2013-09-07 15:40:00,77.7,49.3,29.89,NNE,32,1.0,1.0,37,0.00,,,0.00,Wunderground v.1.15,2013-09-07 19:40:00,
2013-09-07 15:45:00,77.9,48.8,29.89,SW,224,1.0,1.0,36,0.00,,,0.00,Wunderground v.1.15,2013-09-07 19:45:00,
2013-09-07 15:50:00,77.7,48.6,29.89,SW,219,0.0,0.0,36,0.00,,,0.00,Wunderground v.1.15,2013-09-07 19:50:00,
2013-09-07 16:00:00,77.4,49.8,29.89,SSW,200,1.0,1.0,38,0.00,,,0.00,Wunderground v.1.15,2013-09-07 20:00:00,
2013-09-07 16:05:00,77.6,48.5,29.89,SSW,202,0.0,1.0,36,0.00,,,0.00,Wunderground v.1.15,2013-09-07 20:05:00,
2013-09-07 16:15:00,77.6,49.3,29.89,South,183,1.0,1.0,37,0.00,,,0.00,Wunderground v.1.15,2013-09-07 20:15:00,
2013-09-07 16:20:00,78.1,49.0,29.88,South,182,0.0,0.0,36,0.00,,,0.00,Wunderground v.1.15,2013-09-07 20:20:00,
2013-09-07 16:25:00,78.6,49.4,29.88,South,182,0.0,0.0,36,0.00,,,0.00,Wunderground v.1.15,2013-09-07 20:25:00,
2013-09-07 16:30:00,78.6,49.4,29.88,South,189,0.0,0.0,36,0.00,,,0.00,Wunderground v.1.15,2013-09-07 20:30:00,
2013-09-07 16:40:00,78.6,47.9,29.88,South,175,0.0,0.0,34,0.00,,,0.00,Wunderground v.1.15,2013-09-07 20:40:00,
2013-09-07 16:45:00,78.3,49.9,29.88,South,182,0.0,0.0,37,0.00,,,0.00,Wunderground v.1.15,2013-09-07 20:45:00,
2013-09-07 16:55:00,77.2,49.6,29.87,South,180,0.0,3.0,38,0.00,,,0.00,Wunderground v.1.15,2013-09-07 20:55:00,
2013-09-07 17:00:00,77.4,50.5,29.87,SSE,158,0.0,0.0,39,0.00,,,0.00,Wunderground v.1.15,2013-09-07 21:00:00,
2013-09-07 17:10:00,77.2,51.0,29.87,SSE,160,0.0,0.0,40,0.00,,,0.00,Wunderground v.1.15,2013-09-07 21:10:00,
2013-09-07 17:15:00,77.0,50.1,29.87,South,180,0.0,0.0,39,0.00,,,0.00,Wunderground v.1.15,2013-09-07 21:15:00,
2013-09-07 17:20:00,76.7,50.6,29.87,SSE,164,0.0,0.0,40,0.00,,,0.00,Wunderground v.1.15,2013-09-07 21:20:00,
2013-09-07 17:25:00,76.3,50.2,29.87,SSE,164,0.0,0.0,40,0.00,,,0.00,Wunderground v.1.15,2013-09-07 21:25:00,
2013-09-07 17:30:00,76.1,50.7,29.87,SSE,164,0.0,0.0,41,0.00,,,0.00,Wunderground v.1.15,2013-09-07 21:30:00,
2013-09-07 17:35:00,76.1,52.6,29.87,SSE,164,0.0,0.0,44,0.00,,,0.00,Wunderground v.1.15,2013-09-07 21:35:00,
2013-09-07 17:45:00,75.8,52.3,29.87,SSE,164,0.0,0.0,44,0.00,,,0.00,Wunderground v.1.15,2013-09-07 21:45:00,
2013-09-07 17:50:00,75.6,52.1,29.87,SSE,164,0.0,0.0,44,0.00,,,0.00,Wunderground v.1.15,2013-09-07 21:50:00,
2013-09-07 17:55:00,75.3,51.9,29.87,SSE,164,0.0,0.0,44,0.00,,,0.00,Wunderground v.1.15,2013-09-07 21:55:00,
2013-09-07 18:00:00,75.1,51.7,29.87,SSE,164,0.0,0.0,44,0.00,,,0.00,Wunderground v.1.15,2013-09-07 22:00:00,
2013-09-07 18:05:00,74.9,51.5,29.87,SSE,164,0.0,0.0,44,0.00,,,0.00,Wunderground v.1.15,2013-09-07 22:05:00,
2013-09-07 18:14:00,74.7,51.9,29.87,SSE,164,0.0,0.0,45,0.00,,,0.00,Wunderground v.1.15,2013-09-07 22:14:00,
2013-09-07 18:19:00,74.7,51.9,29.87,SSE,164,0.0,0.0,45,0.00,,,0.00,Wunderground v.1.15,2013-09-07 22:19:00,
2013-09-07 18:24:00,74.6,52.4,29.87,SSE,164,0.0,0.0,46,0.00,,,0.00,Wunderground v.1.15,2013-09-07 22:24:00,
2013-09-07 18:29:00,74.4,52.3,29.87,SSE,164,0.0,0.0,46,0.00,,,0.00,Wunderground v.1.15,2013-09-07 22:29:00,
2013-09-07 18:35:00,74.2,52.7,29.87,SSE,164,0.0,0.0,47,0.00,,,0.00,Wunderground v.1.15,2013-09-07 22:35:00,
2013-09-07 18:39:00,74.2,53.2,29.87,SSE,164,0.0,0.0,48,0.00,,,0.00,Wunderground v.1.15,2013-09-07 22:39:00,
2013-09-07 18:45:00,74.0,55.3,29.87,SSE,164,0.0,0.0,52,0.00,,,0.00,Wunderground v.1.15,2013-09-07 22:45:00,
2013-09-07 18:55:00,73.5,55.8,29.87,SSE,164,0.0,0.0,54,0.00,,,0.00,Wunderground v.1.15,2013-09-07 22:55:00,
2013-09-07 19:00:00,73.2,55.6,29.87,SSE,164,0.0,0.0,54,0.00,,,0.00,Wunderground v.1.15,2013-09-07 23:00:00,
2013-09-07 19:05:00,73.0,56.4,29.86,SSE,164,0.0,0.0,56,0.00,,,0.00,Wunderground v.1.15,2013-09-07 23:05:00,
2013-09-07 19:15:00,72.3,56.7,29.86,SSE,164,0.0,0.0,58,0.00,,,0.00,Wunderground v.1.15,2013-09-07 23:15:00,
2013-09-07 19:20:00,72.0,56.9,29.86,SSE,164,0.0,0.0,59,0.00,,,0.00,Wunderground v.1.15,2013-09-07 23:20:00,
2013-09-07 19:25:00,71.6,57.0,29.86,SSE,164,0.0,0.0,60,0.00,,,0.00,Wunderground v.1.15,2013-09-07 23:25:00,
2013-09-07 19:30:00,71.3,56.7,29.86,SSE,164,0.0,0.0,60,0.00,,,0.00,Wunderground v.1.15,2013-09-07 23:30:00,
2013-09-07 19:40:00,70.8,56.7,29.87,SSE,164,0.0,0.0,61,0.00,,,0.00,Wunderground v.1.15,2013-09-07 23:40:00,
2013-09-07 19:49:00,70.3,56.7,29.86,SSE,164,0.0,0.0,62,0.00,,,0.00,Wunderground v.1.15,2013-09-07 23:49:00,
2013-09-07 19:55:00,70.3,56.2,29.86,SSE,164,0.0,0.0,61,0.00,,,0.00,Wunderground v.1.15,2013-09-07 23:55:00,
2013-09-07 20:00:00,70.1,56.0,29.86,SSE,164,0.0,0.0,61,0.00,,,0.00,Wunderground v.1.15,2013-09-08 00:00:00,
2013-09-07 20:05:00,69.9,55.8,29.86,SSE,164,0.0,0.0,61,0.00,,,0.00,Wunderground v.1.15,2013-09-08 00:05:00,
2013-09-07 20:15:00,69.6,56.0,29.86,SSE,164,0.0,0.0,62,0.00,,,0.00,Wunderground v.1.15,2013-09-08 00:15:00,
2013-09-07 20:20:00,69.6,55.6,29.86,SSE,164,0.0,0.0,61,0.00,,,0.00,Wunderground v.1.15,2013-09-08 00:20:00,
2013-09-07 20:25:00,69.4,55.4,29.86,SSE,164,0.0,0.0,61,0.00,,,0.00,Wunderground v.1.15,2013-09-08 00:25:00,
2013-09-07 20:30:00,69.4,54.9,29.86,SSE,164,0.0,0.0,60,0.00,,,0.00,Wunderground v.1.15,2013-09-08 00:30:00,
2013-09-07 20:40:00,69.3,54.4,29.87,SSE,164,0.0,0.0,59,0.00,,,0.00,Wunderground v.1.15,2013-09-08 00:40:00,
2013-09-07 20:45:00,69.3,54.4,29.87,SSE,164,0.0,0.0,59,0.00,,,0.00,Wunderground v.1.15,2013-09-08 00:45:00,
2013-09-07 20:50:00,69.1,54.2,29.86,SSE,164,0.0,0.0,59,0.00,,,0.00,Wunderground v.1.15,2013-09-08 00:50:00,
2013-09-07 20:54:00,69.1,54.6,29.86,SSE,164,0.0,0.0,60,0.00,,,0.00,Wunderground v.1.15,2013-09-08 00:54:00,
2013-09-07 20:59:00,68.9,54.4,29.86,SSE,164,0.0,0.0,60,0.00,,,0.00,Wunderground v.1.15,2013-09-08 00:59:00,
2013-09-07 21:04:00,68.8,54.8,29.86,SSE,164,0.0,0.0,61,0.00,,,0.00,Wunderground v.1.15,2013-09-08 01:04:00,
2013-09-07 21:10:00,68.6,54.6,29.86,SSE,164,0.0,0.0,61,0.00,,,0.00,Wunderground v.1.15,2013-09-08 01:10:00,
2013-09-07 21:20:00,68.4,54.4,29.87,SSE,164,0.0,0.0,61,0.00,,,0.00,Wunderground v.1.15,2013-09-08 01:20:00,
2013-09-07 21:25:00,68.3,54.3,29.87,SSE,164,0.0,0.0,61,0.00,,,0.00,Wunderground v.1.15,2013-09-08 01:25:00,
2013-09-07 21:30:00,68.3,54.8,29.87,SSE,164,0.0,0.0,62,0.00,,,0.00,Wunderground v.1.15,2013-09-08 01:30:00,
2013-09-07 21:35:00,68.1,54.6,29.86,SSE,164,0.0,0.0,62,0.00,,,0.00,Wunderground v.1.15,2013-09-08 01:35:00,
2013-09-07 21:40:00,67.9,54.4,29.86,SSE,164,0.0,0.0,62,0.00,,,0.00,Wunderground v.1.15,2013-09-08 01:40:00,
2013-09-07 21:50:00,67.8,54.7,29.86,SSE,164,0.0,0.0,63,0.00,,,0.00,Wunderground v.1.15,2013-09-08 01:50:00,
2013-09-07 22:00:00,67.8,55.2,29.86,SSE,164,0.0,0.0,64,0.00,,,0.00,Wunderground v.1.15,2013-09-08 02:00:00,
2013-09-07 22:05:00,67.8,55.6,29.86,SSE,164,0.0,0.0,65,0.00,,,0.00,Wunderground v.1.15,2013-09-08 02:05:00,
2013-09-07 22:10:00,67.6,55.8,29.86,SSE,164,0.0,0.0,66,0.00,,,0.00,Wunderground v.1.15,2013-09-08 02:10:00,
2013-09-07 22:15:00,67.4,56.1,29.86,SSE,164,0.0,0.0,67,0.00,,,0.00,Wunderground v.1.15,2013-09-08 02:15:00,
2013-09-07 22:24:00,66.9,56.8,29.86,SSE,164,0.0,0.0,70,0.00,,,0.00,Wunderground v.1.15,2013-09-08 02:24:00,
2013-09-07 22:29:00,66.6,57.3,29.86,SSE,164,0.0,0.0,72,0.00,,,0.00,Wunderground v.1.15,2013-09-08 02:29:00,
2013-09-07 22:34:00,66.4,57.1,29.86,SSE,164,0.0,0.0,72,0.00,,,0.00,Wunderground v.1.15,2013-09-08 02:34:00,
2013-09-07 22:39:00,66.3,57.4,29.86,SSE,164,0.0,0.0,73,0.00,,,0.00,Wunderground v.1.15,2013-09-08 02:39:00,
2013-09-07 22:45:00,66.1,57.6,29.86,SSE,164,0.0,0.0,74,0.00,,,0.00,Wunderground v.1.15,2013-09-08 02:45:00,
2013-09-07 22:50:00,66.0,57.8,29.85,SSE,164,0.0,0.0,75,0.00,,,0.00,Wunderground v.1.15,2013-09-08 02:50:00,
2013-09-07 23:00:00,65.6,57.5,29.85,SSE,164,0.0,0.0,75,0.00,,,0.00,Wunderground v.1.15,2013-09-08 03:00:00,
2013-09-07 23:05:00,65.5,57.7,29.85,SSE,164,0.0,0.0,76,0.00,,,0.00,Wunderground v.1.15,2013-09-08 03:05:00,
2013-09-07 23:15:00,65.3,58.3,29.85,SSE,164,0.0,0.0,78,0.00,,,0.00,Wunderground v.1.15,2013-09-08 03:15:00,
2013-09-07 23:24:00,65.0,58.3,29.84,SSE,164,0.0,0.0,79,0.00,,,0.00,Wunderground v.1.15,2013-09-08 03:24:00,
2013-09-07 23:30:00,64.8,58.5,29.84,SSE,164,0.0,0.0,80,0.00,,,0.00,Wunderground v.1.15,2013-09-08 03:30:00,
2013-09-07 23:40:00,64.7,58.7,29.84,SSE,164,0.0,0.0,81,0.00,,,0.00,Wunderground v.1.15,2013-09-08 03:40:00,
2013-09-07 23:45:00,64.5,58.9,29.84,SSE,164,0.0,0.0,82,0.00,,,0.00,Wunderground v.1.15,2013-09-08 03:45:00,
2013-09-07 23:50:00,64.5,58.9,29.84,SSE,164,0.0,0.0,82,0.00,,,0.00,Wunderground v.1.15,2013-09-08 03:50:00,
2013-09-07 23:55:00,64.3,58.7,29.84,SSE,164,0.0,0.0,82,0.00,,,0.00,Wunderground v.1.15,2013-09-08 03:55:00,